| time (UTC) | temp C | wind direction | speed KPH | gust KPH | rain 1hr cm | rain 24hr cm | rain mn cm | humidity % | barometer mb |
| 20260506044850 | 7 | 43 | 0.0 | 1.6 | 0.00 | 0.00 | 0.00 | 96 | 1009.7 |
| 20260506044348 | 7 | 52 | 1.6 | 6.4 | 0.00 | 0.00 | 0.00 | 96 | 1009.6 |
| 20260506043845 | 7 | 33 | 1.6 | 3.2 | 0.00 | 0.00 | 0.00 | 96 | 1009.4 |
| 20260506043342 | 7 | 327 | 0.0 | 1.6 | 0.00 | 0.00 | 0.00 | 96 | 1009.4 |
| 20260506042840 | 7 | 26 | 1.6 | 4.8 | 0.00 | 0.00 | 0.00 | 96 | 1009.2 |
| 20260506042339 | 7 | 44 | 0.0 | 1.6 | 0.00 | 0.00 | 0.00 | 96 | 1009.3 |
| 20260506041838 | 7 | 24 | 0.0 | 1.6 | 0.00 | 0.00 | 0.00 | 96 | 1009.5 |
| 20260506041334 | 7 | 40 | 1.6 | 1.6 | 0.00 | 0.00 | 0.00 | 96 | 1009.5 |
| 20260506040831 | 7 | 28 | 0.0 | 1.6 | 0.00 | 0.00 | 0.00 | 96 | 1009.5 |
| 20260506040329 | 7 | 28 | 1.6 | 1.6 | 0.00 | 0.00 | 0.00 | 95 | 1009.3 |
| 20260506035825 | 7 | 23 | 0.0 | 0.0 | 0.00 | 0.25 | 0.25 | 96 | 1009.5 |
| 20260506035322 | 7 | 289 | 0.0 | 1.6 | 0.00 | 0.25 | 0.25 | 95 | 1009.5 |
| 20260506034819 | 7 | 289 | 0.0 | 0.0 | 0.00 | 0.25 | 0.25 | 96 | 1009.4 |
| 20260506034317 | 7 | 240 | 0.0 | 1.6 | 0.00 | 0.25 | 0.25 | 95 | 1009.3 |
| 20260506033814 | 7 | 240 | 0.0 | 3.2 | 0.00 | 0.25 | 0.25 | 95 | 1009.4 |
| 20260506033310 | 7 | 339 | 1.6 | 1.6 | 0.00 | 0.25 | 0.25 | 95 | 1009.6 |
| 20260506032807 | 7 | 75 | 0.0 | 1.6 | 0.00 | 0.25 | 0.25 | 95 | 1009.9 |
| 20260506032306 | 7 | 103 | 3.2 | 6.4 | 0.00 | 0.25 | 0.25 | 95 | 1010.0 |
| 20260506031801 | 7 | 83 | 0.0 | 4.8 | 0.00 | 0.25 | 0.25 | 95 | 1009.9 |
| 20260506031258 | 7 | 95 | 1.6 | 3.2 | 0.00 | 0.25 | 0.25 | 95 | 1009.7 |
| 20260506030756 | 7 | 184 | 1.6 | 6.4 | 0.00 | 0.25 | 0.25 | 95 | 1009.7 |
| 20260506030254 | 7 | 136 | 1.6 | 4.8 | 0.00 | 0.25 | 0.25 | 95 | 1009.7 |
| 20260506025751 | 7 | 334 | 3.2 | 4.8 | 0.00 | 0.25 | 0.25 | 95 | 1009.5 |
| 20260506025247 | 7 | 55 | 1.6 | 3.2 | 0.00 | 0.25 | 0.25 | 95 | 1009.5 |
| 20260506024744 | 7 | 47 | 3.2 | 4.8 | 0.00 | 0.25 | 0.25 | 95 | 1009.4 |
| 20260506024241 | 7 | 97 | 1.6 | 6.4 | 0.00 | 0.25 | 0.25 | 94 | 1009.4 |
| 20260506023736 | 7 | 52 | 4.8 | 4.8 | 0.00 | 0.25 | 0.25 | 94 | 1009.6 |
| 20260506023234 | 7 | 54 | 0.0 | 3.2 | 0.00 | 0.25 | 0.25 | 94 | 1009.7 |
| 20260506022730 | 7 | 17 | 1.6 | 9.7 | 0.00 | 0.25 | 0.25 | 94 | 1009.9 |
| 20260506022229 | 7 | 8 | 3.2 | 4.8 | 0.00 | 0.25 | 0.25 | 94 | 1010.0 |
| 20260506021726 | 7 | 46 | 3.2 | 9.7 | 0.00 | 0.25 | 0.25 | 94 | 1009.7 |
| 20260506021223 | 7 | 69 | 1.6 | 4.8 | 0.00 | 0.25 | 0.25 | 94 | 1010.0 |
| 20260506020719 | 7 | 49 | 1.6 | 3.2 | 0.00 | 0.25 | 0.25 | 93 | 1010.0 |
| 20260506020218 | 7 | 41 | 0.0 | 3.2 | 0.00 | 0.25 | 0.25 | 93 | 1010.2 |
| 20260506015715 | 7 | 62 | 0.0 | 3.2 | 0.13 | 0.25 | 0.25 | 93 | 1010.0 |
| 20260506015213 | 8 | 87 | 3.2 | 6.4 | 0.13 | 0.25 | 0.25 | 93 | 1009.9 |
| 20260506014710 | 8 | 17 | 3.2 | 4.8 | 0.48 | 0.23 | 0.23 | 92 | 1009.9 |
| 20260506014205 | 8 | 30 | 0.0 | 6.4 | 0.66 | 0.23 | 0.23 | 92 | 1010.0 |
| 20260506013703 | 8 | 27 | 4.8 | 9.7 | 0.48 | 0.15 | 0.15 | 91 | 1009.5 |
| 20260506013200 | 8 | 69 | 8.0 | 9.7 | 0.43 | 0.13 | 0.13 | 90 | 1009.7 |
| 20260506012656 | 8 | 71 | 3.2 | 3.2 | 0.13 | 0.08 | 0.08 | 91 | 1009.6 |
| 20260506012153 | 9 | 72 | 3.2 | 9.7 | 0.00 | 0.05 | 0.05 | 90 | 1009.9 |
| 20260506011651 | 10 | 18 | 8.0 | 11.3 | 0.00 | 0.05 | 0.05 | 89 | 1009.6 |
| 20260506011147 | 11 | 70 | 6.4 | 11.3 | 0.00 | 0.05 | 0.05 | 88 | 1009.4 |
| 20260506010646 | 11 | 53 | 4.8 | 6.4 | 0.00 | 0.05 | 0.05 | 89 | 1009.6 |
| 20260506010142 | 11 | 2 | 0.0 | 4.8 | 0.00 | 0.05 | 0.05 | 89 | 1009.4 |
| 20260506005639 | 12 | 336 | 4.8 | 6.4 | 0.00 | 0.05 | 0.05 | 89 | 1009.4 |
| 20260506005136 | 12 | 322 | 4.8 | 6.4 | 0.00 | 0.05 | 0.05 | 88 | 1009.2 |
| 20260506004632 | 12 | 36 | 3.2 | 11.3 | 0.00 | 0.05 | 0.05 | 87 | 1009.1 |
| 20260506004130 | 12 | 334 | 1.6 | 3.2 | 0.00 | 0.05 | 0.05 | 88 | 1009.1 |
| 20260506003626 | 12 | 32 | 1.6 | 1.6 | 0.00 | 0.05 | 0.05 | 88 | 1009.1 |
| 20260506003122 | 12 | 351 | 1.6 | 3.2 | 0.00 | 0.05 | 0.05 | 87 | 1008.8 |
| 20260506002618 | 13 | 328 | 1.6 | 1.6 | 0.00 | 0.05 | 0.05 | 87 | 1008.7 |
| 20260506002114 | 13 | 36 | 1.6 | 1.6 | 0.00 | 0.05 | 0.05 | 86 | 1008.7 |
| 20260506001610 | 13 | 86 | 1.6 | 1.6 | 0.00 | 0.05 | 0.05 | 85 | 1008.5 |
| 20260506001108 | 13 | 335 | 0.0 | 3.2 | 0.18 | 0.05 | 0.05 | 84 | 1008.5 |
| 20260506000605 | 13 | 331 | 1.6 | 3.2 | 0.18 | 0.05 | 0.05 | 83 | 1008.5 |
| 20260505235600 | 15 | 69 | 3.2 | 11.3 | 0.00 | 0.03 | 0.03 | 77 | 1008.5 |
| 20260505235057 | 15 | 289 | 14.5 | 17.7 | 0.00 | 0.03 | 0.03 | 75 | 1008.5 |
| 20260505234554 | 15 | 209 | 1.6 | 6.4 | 0.00 | 0.03 | 0.03 | 75 | 1007.9 |
| 20260505234050 | 16 | 3 | 3.2 | 6.4 | 0.00 | 0.03 | 0.03 | 77 | 1008.7 |
| 20260505233548 | 16 | 315 | 0.0 | 3.2 | 0.00 | 0.03 | 0.03 | 76 | 1007.9 |
| 20260505233045 | 16 | 68 | 1.6 | 11.3 | 0.00 | 0.03 | 0.03 | 74 | 1007.7 |
| 20260505232543 | 16 | 351 | 4.8 | 9.7 | 0.00 | 0.03 | 0.03 | 76 | 1007.3 |
| 20260505232040 | 16 | 48 | 3.2 | 3.2 | 0.00 | 0.03 | 0.03 | 77 | 1007.4 |
| 20260505231537 | 16 | 24 | 0.0 | 1.6 | 0.00 | 0.03 | 0.03 | 74 | 1007.4 |
| 20260505231036 | 16 | 243 | 3.2 | 3.2 | 0.00 | 0.03 | 0.03 | 73 | 1007.7 |
| 20260505230533 | 16 | 157 | 0.0 | 1.6 | 0.00 | 0.03 | 0.03 | 73 | 1007.3 |
| 20260505230029 | 16 | 205 | 0.0 | 3.2 | 0.00 | 0.03 | 0.03 | 74 | 1007.4 |
| 20260505225526 | 16 | 140 | 3.2 | 3.2 | 0.00 | 0.03 | 0.03 | 75 | 1007.4 |
| 20260505225022 | 16 | 89 | 1.6 | 1.6 | 0.00 | 0.03 | 0.03 | 74 | 1007.2 |
| 20260505224519 | 16 | 316 | 6.4 | 6.4 | 0.00 | 0.03 | 0.03 | 71 | 1007.3 |
| 20260505224017 | 16 | 199 | 6.4 | 12.9 | 0.00 | 0.03 | 0.03 | 71 | 1007.1 |
| 20260505223514 | 17 | 216 | 11.3 | 20.9 | 0.00 | 0.03 | 0.03 | 69 | 1007.0 |
| 20260505223010 | 17 | 181 | 16.1 | 25.7 | 0.00 | 0.03 | 0.03 | 67 | 1007.2 |
| 20260505222506 | 18 | 348 | 6.4 | 14.5 | 0.00 | 0.03 | 0.03 | 63 | 1007.1 |
| 20260505222002 | 20 | 266 | 3.2 | 9.7 | 0.00 | 0.03 | 0.03 | 58 | 1006.8 |
| 20260505221459 | 19 | 228 | 11.3 | 12.9 | 0.00 | 0.03 | 0.03 | 54 | 1006.5 |
| 20260505220956 | 19 | 221 | 1.6 | 6.4 | 0.00 | 0.03 | 0.03 | 57 | 1006.2 |
| 20260505220453 | 20 | 248 | 1.6 | 1.6 | 0.00 | 0.03 | 0.03 | 58 | 1006.1 |
| 20260505215951 | 20 | 212 | 16.1 | 20.9 | 0.00 | 0.03 | 0.03 | 54 | 1006.4 |
| 20260505215449 | 20 | 300 | 0.0 | 1.6 | 0.00 | 0.03 | 0.03 | 58 | 1006.3 |
| 20260505214946 | 20 | 298 | 4.8 | 4.8 | 0.00 | 0.03 | 0.03 | 55 | 1006.3 |
| 20260505214444 | 20 | 275 | 4.8 | 11.3 | 0.00 | 0.03 | 0.03 | 56 | 1006.4 |
| 20260505213941 | 20 | 300 | 4.8 | 6.4 | 0.00 | 0.03 | 0.03 | 55 | 1006.1 |
| 20260505213439 | 20 | 267 | 1.6 | 3.2 | 0.00 | 0.03 | 0.03 | 56 | 1006.3 |
| 20260505212935 | 20 | 297 | 6.4 | 6.4 | 0.00 | 0.03 | 0.03 | 55 | 1006.1 |
| 20260505212432 | 20 | 310 | 3.2 | 6.4 | 0.00 | 0.03 | 0.03 | 55 | 1006.1 |
| 20260505211928 | 20 | 272 | 3.2 | 9.7 | 0.00 | 0.03 | 0.03 | 57 | 1006.0 |
| 20260505211426 | 20 | 300 | 3.2 | 11.3 | 0.00 | 0.03 | 0.03 | 57 | 1006.0 |
| 20260505210922 | 20 | 319 | 3.2 | 6.4 | 0.00 | 0.03 | 0.03 | 58 | 1005.7 |
| 20260505210419 | 20 | 335 | 6.4 | 6.4 | 0.00 | 0.03 | 0.03 | 59 | 1005.9 |
| 20260505205916 | 20 | 305 | 6.4 | 6.4 | 0.00 | 0.03 | 0.03 | 57 | 1005.8 |
| 20260505205415 | 20 | 290 | 6.4 | 9.7 | 0.00 | 0.03 | 0.03 | 57 | 1005.8 |
| 20260505204911 | 20 | 325 | 3.2 | 11.3 | 0.00 | 0.03 | 0.03 | 58 | 1005.8 |
| 20260505204409 | 21 | 309 | 8.0 | 17.7 | 0.00 | 0.03 | 0.03 | 55 | 1006.1 |
| 20260505203906 | 21 | 316 | 8.0 | 12.9 | 0.00 | 0.03 | 0.03 | 54 | 1006.1 |
| 20260505203402 | 21 | 243 | 12.9 | 22.5 | 0.00 | 0.03 | 0.03 | 52 | 1006.0 |
| 20260505202858 | 21 | 273 | 6.4 | 14.5 | 0.00 | 0.03 | 0.03 | 51 | 1006.1 |
| 20260505202355 | 21 | 279 | 11.3 | 20.9 | 0.00 | 0.03 | 0.03 | 51 | 1006.1 |
| 20260505201851 | 21 | 230 | 20.9 | 24.1 | 0.00 | 0.03 | 0.03 | 54 | 1006.3 |
| 20260505201349 | 21 | 228 | 27.4 | 38.6 | 0.00 | 0.03 | 0.03 | 52 | 1006.2 |
| 20260505200847 | 21 | 220 | 27.4 | 29.0 | 0.00 | 0.03 | 0.03 | 53 | 1006.1 |
| 20260505200343 | 21 | 227 | 25.7 | 29.0 | 0.00 | 0.03 | 0.03 | 54 | 1006.0 |
| 20260505195839 | 21 | 245 | 17.7 | 25.7 | 0.00 | 0.03 | 0.03 | 54 | 1006.1 |
| 20260505195337 | 20 | 246 | 20.9 | 27.4 | 0.00 | 0.03 | 0.03 | 55 | 1006.5 |
| 20260505194833 | 20 | 211 | 27.4 | 35.4 | 0.00 | 0.03 | 0.03 | 55 | 1006.2 |
| 20260505194331 | 20 | 229 | 32.2 | 37.0 | 0.00 | 0.03 | 0.03 | 54 | 1006.4 |
| 20260505193832 | 21 | 215 | 35.4 | 40.2 | 0.00 | 0.03 | 0.03 | 52 | 1006.2 |
| 20260505193330 | 20 | 221 | 30.6 | 35.4 | 0.00 | 0.03 | 0.03 | 53 | 1006.3 |
| 20260505192827 | 20 | 267 | 24.1 | 30.6 | 0.00 | 0.03 | 0.03 | 52 | 1006.3 |
| 20260505192325 | 20 | 187 | 19.3 | 33.8 | 0.00 | 0.03 | 0.03 | 54 | 1006.1 |
| 20260505191823 | 20 | 222 | 20.9 | 29.0 | 0.00 | 0.03 | 0.03 | 54 | 1006.3 |
| 20260505191321 | 20 | 212 | 19.3 | 30.6 | 0.00 | 0.03 | 0.03 | 53 | 1006.3 |
| 20260505190817 | 20 | 235 | 11.3 | 25.7 | 0.00 | 0.03 | 0.03 | 56 | 1006.1 |
| 20260505190313 | 20 | 209 | 19.3 | 30.6 | 0.00 | 0.03 | 0.03 | 53 | 1006.3 |
| 20260505185809 | 20 | 225 | 24.1 | 38.6 | 0.00 | 0.03 | 0.03 | 53 | 1006.4 |
| 20260505185305 | 20 | 238 | 6.4 | 12.9 | 0.00 | 0.03 | 0.03 | 60 | 1006.5 |
| 20260505184801 | 20 | 301 | 6.4 | 6.4 | 0.00 | 0.03 | 0.03 | 61 | 1006.3 |
| 20260505184259 | 19 | 226 | 3.2 | 4.8 | 0.00 | 0.03 | 0.03 | 64 | 1006.6 |
| 20260505183756 | 20 | 207 | 4.8 | 6.4 | 0.00 | 0.03 | 0.03 | 62 | 1006.4 |
| 20260505183253 | 19 | 250 | 1.6 | 4.8 | 0.00 | 0.03 | 0.03 | 62 | 1006.5 |
| 20260505182749 | 20 | 182 | 4.8 | 9.7 | 0.00 | 0.03 | 0.03 | 61 | 1006.4 |
| 20260505182246 | 18 | 236 | 3.2 | 6.4 | 0.00 | 0.03 | 0.03 | 63 | 1006.1 |
| 20260505181742 | 18 | 291 | 3.2 | 9.7 | 0.00 | 0.03 | 0.03 | 65 | 1006.3 |
| 20260505181240 | 18 | 303 | 4.8 | 6.4 | 0.00 | 0.03 | 0.03 | 66 | 1006.1 |
| 20260505180737 | 18 | 243 | 6.4 | 9.7 | 0.00 | 0.03 | 0.03 | 68 | 1006.1 |
| 20260505180233 | 17 | 339 | 1.6 | 11.3 | 0.00 | 0.03 | 0.03 | 68 | 1006.2 |
| 20260505175730 | 17 | 227 | 9.7 | 11.3 | 0.00 | 0.03 | 0.03 | 68 | 1006.2 |
| 20260505175226 | 17 | 318 | 14.5 | 16.1 | 0.00 | 0.03 | 0.03 | 69 | 1006.5 |
| 20260505174723 | 17 | 317 | 12.9 | 29.0 | 0.00 | 0.03 | 0.03 | 68 | 1006.5 |
| 20260505174220 | 18 | 298 | 24.1 | 29.0 | 0.00 | 0.03 | 0.03 | 64 | 1006.6 |
| 20260505173716 | 20 | 84 | 17.7 | 29.0 | 0.00 | 0.03 | 0.03 | 53 | 1006.4 |
| 20260505173213 | 20 | 244 | 24.1 | 43.5 | 0.00 | 0.03 | 0.03 | 50 | 1006.3 |
| 20260505172710 | 20 | 244 | 19.3 | 25.7 | 0.00 | 0.03 | 0.03 | 50 | 1006.1 |
| 20260505172207 | 20 | 221 | 20.9 | 37.0 | 0.00 | 0.03 | 0.03 | 49 | 1006.1 |
| 20260505171706 | 20 | 224 | 27.4 | 40.2 | 0.00 | 0.03 | 0.03 | 49 | 1006.1 |
| 20260505171204 | 20 | 233 | 32.2 | 40.2 | 0.00 | 0.03 | 0.03 | 49 | 1006.1 |
| 20260505170700 | 20 | 230 | 30.6 | 43.5 | 0.00 | 0.03 | 0.03 | 49 | 1006.1 |
| 20260505170158 | 20 | 215 | 32.2 | 41.8 | 0.00 | 0.03 | 0.03 | 50 | 1006.2 |
| 20260505165657 | 20 | 231 | 22.5 | 30.6 | 0.00 | 0.03 | 0.03 | 50 | 1006.3 |
| 20260505165154 | 20 | 212 | 24.1 | 40.2 | 0.00 | 0.03 | 0.03 | 51 | 1006.4 |
| 20260505164649 | 20 | 223 | 25.7 | 33.8 | 0.00 | 0.03 | 0.03 | 51 | 1006.4 |
| 20260505164147 | 20 | 235 | 35.4 | 41.8 | 0.00 | 0.03 | 0.03 | 50 | 1006.6 |
| 20260505163645 | 20 | 234 | 17.7 | 33.8 | 0.00 | 0.03 | 0.03 | 52 | 1006.5 |
| 20260505163143 | 20 | 284 | 32.2 | 43.5 | 0.00 | 0.03 | 0.03 | 50 | 1006.3 |
| 20260505162640 | 20 | 219 | 20.9 | 37.0 | 0.00 | 0.03 | 0.03 | 52 | 1006.3 |
| 20260505162138 | 20 | 222 | 14.5 | 29.0 | 0.00 | 0.03 | 0.03 | 52 | 1006.1 |
| 20260505161634 | 20 | 252 | 29.0 | 33.8 | 0.00 | 0.03 | 0.03 | 51 | 1005.8 |
| 20260505161132 | 20 | 246 | 20.9 | 40.2 | 0.00 | 0.03 | 0.03 | 51 | 1005.9 |
| 20260505160629 | 20 | 219 | 20.9 | 27.4 | 0.00 | 0.03 | 0.03 | 52 | 1005.7 |
| 20260505160127 | 20 | 232 | 22.5 | 30.6 | 0.00 | 0.03 | 0.03 | 52 | 1005.6 |
| 20260505153107 | 20 | 232 | 27.4 | 30.6 | 0.00 | 0.03 | 0.03 | 53 | 1006.3 |
| 20260505152603 | 20 | 222 | 25.7 | 37.0 | 0.00 | 0.03 | 0.03 | 54 | 1006.3 |
| 20260505152058 | 20 | 249 | 14.5 | 25.7 | 0.00 | 0.03 | 0.03 | 55 | 1006.2 |
| 20260505151553 | 20 | 251 | 17.7 | 33.8 | 0.00 | 0.03 | 0.03 | 55 | 1006.3 |
| 20260505151051 | 20 | 228 | 17.7 | 37.0 | 0.00 | 0.03 | 0.03 | 55 | 1006.2 |
| 20260505150547 | 20 | 235 | 27.4 | 35.4 | 0.00 | 0.03 | 0.03 | 54 | 1006.3 |
| 20260505140513 | 19 | 223 | 20.9 | 35.4 | 0.00 | 0.03 | 0.03 | 55 | 1005.8 |
| 20260505124926 | 17 | 198 | 16.1 | 30.6 | 0.00 | 0.03 | 0.03 | 61 | 1006.0 |
| 20260505124423 | 17 | 225 | 19.3 | 30.6 | 0.00 | 0.03 | 0.03 | 61 | 1006.0 |
| 20260505123919 | 17 | 207 | 17.7 | 25.7 | 0.00 | 0.03 | 0.03 | 61 | 1006.0 |
| 20260505123416 | 17 | 198 | 25.7 | 30.6 | 0.00 | 0.03 | 0.03 | 62 | 1006.1 |
| 20260505122911 | 17 | 226 | 17.7 | 25.7 | 0.00 | 0.03 | 0.03 | 62 | 1005.9 |
| 20260505122409 | 17 | 234 | 27.4 | 38.6 | 0.00 | 0.03 | 0.03 | 61 | 1006.2 |
| 20260505121906 | 17 | 194 | 12.9 | 27.4 | 0.00 | 0.03 | 0.03 | 63 | 1006.1 |
| 20260505121403 | 16 | 217 | 19.3 | 33.8 | 0.00 | 0.03 | 0.03 | 63 | 1006.1 |
| 20260505120858 | 16 | 217 | 17.7 | 33.8 | 0.00 | 0.03 | 0.03 | 63 | 1006.4 |
| 20260505120355 | 16 | 216 | 14.5 | 22.5 | 0.00 | 0.03 | 0.03 | 64 | 1006.4 |
| 20260505115854 | 16 | 238 | 14.5 | 25.7 | 0.00 | 0.03 | 0.03 | 65 | 1006.2 |
| 20260505115351 | 16 | 222 | 17.7 | 27.4 | 0.00 | 0.03 | 0.03 | 65 | 1006.1 |
| 20260505114849 | 16 | 197 | 20.9 | 25.7 | 0.00 | 0.03 | 0.03 | 65 | 1006.1 |
| 20260505114345 | 16 | 193 | 14.5 | 20.9 | 0.00 | 0.03 | 0.03 | 65 | 1006.1 |
| 20260505113841 | 16 | 227 | 14.5 | 20.9 | 0.00 | 0.03 | 0.03 | 66 | 1006.0 |
| 20260505113338 | 16 | 202 | 20.9 | 30.6 | 0.00 | 0.03 | 0.03 | 66 | 1006.1 |
| 20260505112834 | 16 | 178 | 14.5 | 16.1 | 0.00 | 0.03 | 0.03 | 66 | 1006.0 |
| 20260505112332 | 15 | 206 | 14.5 | 29.0 | 0.00 | 0.03 | 0.03 | 66 | 1006.0 |
| 20260505111827 | 15 | 184 | 9.7 | 12.9 | 0.00 | 0.03 | 0.03 | 68 | 1006.1 |
| 20260505111323 | 15 | 176 | 12.9 | 30.6 | 0.00 | 0.03 | 0.03 | 66 | 1006.1 |
| 20260505110819 | 15 | 143 | 17.7 | 33.8 | 0.00 | 0.03 | 0.03 | 69 | 1006.0 |
| 20260505110317 | 15 | 147 | 11.3 | 35.4 | 0.00 | 0.03 | 0.03 | 68 | 1005.9 |
| 20260505101751 | 15 | 222 | 14.5 | 17.7 | 0.00 | 0.03 | 0.03 | 73 | 1005.4 |
| 20260505101246 | 15 | 180 | 17.7 | 22.5 | 0.00 | 0.03 | 0.03 | 71 | 1005.1 |
| 20260505100743 | 15 | 197 | 11.3 | 25.7 | 0.00 | 0.03 | 0.03 | 71 | 1005.4 |
| 20260505100240 | 14 | 179 | 11.3 | 29.0 | 0.00 | 0.03 | 0.03 | 73 | 1005.1 |
| 20260505095735 | 14 | 171 | 14.5 | 24.1 | 0.00 | 0.03 | 0.03 | 73 | 1005.4 |
| 20260505095234 | 14 | 205 | 14.5 | 20.9 | 0.00 | 0.03 | 0.03 | 73 | 1005.1 |
| 20260505094729 | 15 | 149 | 11.3 | 22.5 | 0.00 | 0.03 | 0.03 | 71 | 1005.1 |
| 20260505094225 | 15 | 202 | 14.5 | 20.9 | 0.00 | 0.03 | 0.03 | 71 | 1005.4 |
| 20260505093722 | 15 | 205 | 17.7 | 22.5 | 0.00 | 0.03 | 0.03 | 71 | 1005.4 |
| 20260505093219 | 15 | 216 | 14.5 | 22.5 | 0.00 | 0.03 | 0.03 | 70 | 1005.5 |
| 20260505092716 | 15 | 236 | 19.3 | 24.1 | 0.00 | 0.03 | 0.03 | 70 | 1005.4 |
| 20260505092215 | 15 | 187 | 16.1 | 17.7 | 0.13 | 0.03 | 0.03 | 72 | 1005.5 |
| 20260505091711 | 15 | 225 | 16.1 | 33.8 | 0.13 | 0.03 | 0.03 | 71 | 1005.9 |
| 20260505091210 | 15 | 238 | 17.7 | 29.0 | 0.00 | 0.00 | 0.00 | 67 | 1006.0 |
| 20260505090707 | 16 | 240 | 14.5 | 20.9 | 0.00 | 0.00 | 0.00 | 63 | 1005.9 |
| 20260505090205 | 16 | 222 | 17.7 | 29.0 | 0.00 | 0.00 | 0.00 | 61 | 1005.7 |
| 20260505085702 | 16 | 230 | 24.1 | 38.6 | 0.00 | 0.00 | 0.00 | 60 | 1005.9 |
| 20260505085200 | 16 | 237 | 24.1 | 30.6 | 0.00 | 0.00 | 0.00 | 61 | 1005.8 |
| 20260505084657 | 16 | 209 | 24.1 | 29.0 | 0.00 | 0.00 | 0.00 | 61 | 1005.5 |
| 20260505084156 | 16 | 222 | 22.5 | 35.4 | 0.00 | 0.00 | 0.00 | 62 | 1005.4 |
| 20260505083653 | 16 | 204 | 17.7 | 24.1 | 0.00 | 0.00 | 0.00 | 62 | 1005.4 |
| 20260505083149 | 16 | 214 | 16.1 | 24.1 | 0.00 | 0.00 | 0.00 | 61 | 1005.4 |
| 20260505082645 | 16 | 203 | 14.5 | 30.6 | 0.00 | 0.00 | 0.00 | 61 | 1005.4 |
| 20260505082142 | 16 | 211 | 17.7 | 25.7 | 0.00 | 0.00 | 0.00 | 60 | 1005.1 |
| 20260505081638 | 16 | 193 | 14.5 | 24.1 | 0.00 | 0.00 | 0.00 | 61 | 1005.0 |
| 20260505081136 | 16 | 173 | 14.5 | 22.5 | 0.00 | 0.00 | 0.00 | 61 | 1005.2 |
| 20260505080633 | 16 | 206 | 12.9 | 20.9 | 0.00 | 0.00 | 0.00 | 61 | 1005.2 |
| 20260505080129 | 16 | 207 | 14.5 | 24.1 | 0.00 | 0.00 | 0.00 | 61 | 1005.4 |
| 20260505075625 | 16 | 212 | 17.7 | 17.7 | 0.00 | 0.00 | 0.00 | 61 | 1005.1 |
| 20260505075122 | 16 | 219 | 8.0 | 14.5 | 0.00 | 0.00 | 0.00 | 62 | 1005.2 |
| 20260505074619 | 16 | 212 | 14.5 | 20.9 | 0.00 | 0.00 | 0.00 | 63 | 1005.5 |
| 20260505074116 | 16 | 214 | 8.0 | 20.9 | 0.00 | 0.00 | 0.00 | 63 | 1005.6 |
| 20260505073614 | 16 | 234 | 12.9 | 16.1 | 0.00 | 0.00 | 0.00 | 62 | 1005.4 |
| 20260505073112 | 15 | 210 | 9.7 | 12.9 | 0.00 | 0.00 | 0.00 | 63 | 1005.4 |
| 20260505072607 | 15 | 193 | 6.4 | 11.3 | 0.00 | 0.00 | 0.00 | 63 | 1005.5 |
| 20260505072104 | 15 | 197 | 4.8 | 6.4 | 0.00 | 0.00 | 0.00 | 63 | 1005.7 |
| 20260505071559 | 16 | 269 | 3.2 | 12.9 | 0.00 | 0.00 | 0.00 | 62 | 1005.7 |
| 20260505071057 | 16 | 202 | 9.7 | 14.5 | 0.00 | 0.00 | 0.00 | 61 | 1005.5 |
| 20260505070554 | 16 | 207 | 17.7 | 20.9 | 0.00 | 0.00 | 0.00 | 60 | 1005.4 |
| 20260505070050 | 16 | 206 | 14.5 | 20.9 | 0.00 | 0.00 | 0.00 | 60 | 1005.2 |
| 20260505065546 | 16 | 210 | 9.7 | 17.7 | 0.00 | 0.00 | 0.00 | 61 | 1005.6 |
| 20260505065043 | 16 | 200 | 14.5 | 16.1 | 0.00 | 0.00 | 0.00 | 61 | 1005.7 |
| 20260505064540 | 16 | 196 | 14.5 | 14.5 | 0.00 | 0.00 | 0.00 | 61 | 1005.5 |
| 20260505064038 | 16 | 215 | 9.7 | 16.1 | 0.00 | 0.00 | 0.00 | 60 | 1005.8 |
| 20260505063535 | 16 | 203 | 16.1 | 17.7 | 0.00 | 0.00 | 0.00 | 60 | 1005.8 |
| 20260505063031 | 16 | 177 | 16.1 | 24.1 | 0.00 | 0.00 | 0.00 | 59 | 1005.6 |
| 20260505062528 | 16 | 185 | 12.9 | 17.7 | 0.00 | 0.00 | 0.00 | 60 | 1005.5 |
| 20260505062025 | 16 | 205 | 19.3 | 25.7 | 0.00 | 0.00 | 0.00 | 59 | 1005.7 |
| 20260505061523 | 16 | 202 | 16.1 | 22.5 | 0.00 | 0.00 | 0.00 | 59 | 1005.6 |
| 20260505061020 | 16 | 200 | 14.5 | 17.7 | 0.00 | 0.00 | 0.00 | 59 | 1005.5 |
| 20260505060518 | 16 | 214 | 14.5 | 22.5 | 0.00 | 0.00 | 0.00 | 59 | 1005.4 |
| 20260505060014 | 16 | 232 | 12.9 | 24.1 | 0.00 | 0.00 | 0.00 | 59 | 1005.6 |
| 20260505055509 | 16 | 213 | 14.5 | 22.5 | 0.00 | 0.00 | 0.00 | 59 | 1005.5 |
| 20260505055006 | 16 | 197 | 14.5 | 17.7 | 0.00 | 0.00 | 0.00 | 59 | 1005.5 |
| 20260505054504 | 16 | 186 | 12.9 | 20.9 | 0.00 | 0.00 | 0.00 | 59 | 1005.6 |
| 20260505054002 | 16 | 201 | 17.7 | 25.7 | 0.00 | 0.00 | 0.00 | 59 | 1005.7 |
| 20260505053458 | 16 | 224 | 17.7 | 24.1 | 0.00 | 0.00 | 0.00 | 59 | 1005.9 |
| 20260505052955 | 16 | 218 | 12.9 | 22.5 | 0.00 | 0.00 | 0.00 | 59 | 1005.9 |
| 20260505052452 | 15 | 209 | 9.7 | 16.1 | 0.00 | 0.00 | 0.00 | 60 | 1005.9 |
| 20260505051949 | 15 | 172 | 4.8 | 6.4 | 0.00 | 0.00 | 0.00 | 62 | 1005.8 |
| 20260505051446 | 14 | 133 | 3.2 | 4.8 | 0.00 | 0.00 | 0.00 | 63 | 1005.8 |
| 20260505050944 | 14 | 220 | 4.8 | 4.8 | 0.00 | 0.00 | 0.00 | 63 | 1006.2 |
| 20260505050443 | 15 | 204 | 3.2 | 3.2 | 0.00 | 0.00 | 0.00 | 63 | 1006.2 |